Weather History for Chicago DuPage, IL

Change the Weather History Date:

Friday, May 24, 2013

  Actual Average Record
Temperature  
Mean Temperature 48 °F 62 °F  
Max Temperature 61 °F 74 °F 91 °F (2010)
Min Temperature 34 °F 51 °F 34 °F (2013)
Degree Days  
Heating Degree Days 17 5  
Month to date heating degree days 161 186  
Since 1 July heating degree days 6499 6252  
Cooling Degree Days 0 2  
Month to date cooling degree days 47 25  
Year to date cooling degree days 54 29  
Moisture  
Dew Point 34 °F    
Average Humidity 60    
Maximum Humidity 89    
Minimum Humidity 33    
Precipitation  
Precipitation 0.00 in 0.16 in 0.42 in (1998)
Month to date precipitation 3.30 3.64  
Year to date precipitation 16.57 12.08  
Sea Level Pressure  
Sea Level Pressure 30.37 in    
Wind  
Wind Speed 7 mph (NE)    
Max Wind Speed 14 mph    
Max Gust Speed 20 mph    
Visibility 10 miles    
Events      
T = Trace of Precipitation, MM = Missing Value Source: NWS Daily Summary

Daily Weather History Graph

Daily Weather History Graph

Search for Another Location

Airport:

Trip Planner

Search our weather history database for the weather conditions in past years. The results will help you decide how hot, cold, wet, or windy it might be!

Date:

Astronomy

May. 24, 2013 Rise Set
Actual Time 5:24 AM CDT 8:15 PM CDT
Civil Twilight 4:52 AM CDT 8:48 PM CDT
Nautical Twilight 4:10 AM CDT 9:29 PM CDT
Astronomical Twilight 3:22 AM CDT 10:18 PM CDT
Moon 7:56 PM CDT (5/24) 4:57 AM CDT (5/24)
Length of Visible Light 15h 56m
Length of Day
14h 50m
Full, 100% of the Moon is Illuminated
May 24
Full
May 24
Full
May 31
Last Quarter
Jun 8
New
Jun 16
First Quarter

Hourly Weather History & Observations

Time (CDT) Temp. Windchill Dew Point Humidity Pressure Visibility Wind Dir Wind Speed Gust Speed Precip Events Conditions
12:52 AM 39.9 °F 33.4 °F 34.0 °F 79% 30.30 in 10.0 mi NNE 10.4 mph - N/A   Clear
1:52 AM 39.9 °F 33.4 °F 33.1 °F 77% 30.31 in 10.0 mi NNE 10.4 mph - N/A   Clear
2:52 AM 39.0 °F 33.4 °F 32.0 °F 76% 30.32 in 10.0 mi NNE 8.1 mph - N/A   Clear
3:52 AM 36.0 °F 30.3 °F 32.0 °F 86% 30.34 in 10.0 mi North 6.9 mph - N/A   Clear
4:52 AM 34.0 °F 28.8 °F 30.9 °F 89% 30.35 in 10.0 mi North 5.8 mph - N/A   Clear
5:52 AM 34.0 °F 28.8 °F 30.9 °F 89% 30.36 in 10.0 mi North 5.8 mph - N/A   Clear
6:52 AM 41.0 °F 36.4 °F 35.1 °F 79% 30.38 in 10.0 mi North 6.9 mph - N/A   Clear
7:52 AM 46.0 °F 41.9 °F 35.1 °F 66% 30.42 in 10.0 mi NNE 8.1 mph - N/A   Clear
8:52 AM 48.9 °F - 34.0 °F 56% 30.44 in 10.0 mi North 9.2 mph - N/A   Clear
9:52 AM 51.1 °F - 35.1 °F 54% 30.44 in 10.0 mi Variable 5.8 mph - N/A   Clear
10:52 AM 54.0 °F - 37.0 °F 53% 30.43 in 10.0 mi ENE 8.1 mph - N/A   Clear
11:52 AM 57.0 °F - 35.1 °F 44% 30.43 in 10.0 mi Variable 5.8 mph - N/A   Clear
12:52 PM 57.9 °F - 36.0 °F 44% 30.41 in 10.0 mi Variable 3.5 mph - N/A   Clear
1:52 PM 60.1 °F - 36.0 °F 41% 30.40 in 10.0 mi Variable 5.8 mph - N/A   Clear
2:52 PM 61.0 °F - 37.9 °F 42% 30.38 in 10.0 mi NE 11.5 mph - N/A   Clear
3:52 PM 60.1 °F - 35.1 °F 39% 30.37 in 10.0 mi East 8.1 mph 19.6 mph N/A   Clear
4:52 PM 59.0 °F - 32.0 °F 36% 30.34 in 10.0 mi East 11.5 mph - N/A   Clear
5:52 PM 57.9 °F - 30.0 °F 35% 30.34 in 10.0 mi East 5.8 mph - N/A   Clear
6:52 PM 55.9 °F - 27.0 °F 33% 30.34 in 10.0 mi ESE 6.9 mph - N/A   Clear
7:52 PM 53.1 °F - 32.0 °F 45% 30.33 in 10.0 mi East 9.2 mph - N/A   Clear
8:52 PM 48.9 °F - 34.0 °F 56% 30.35 in 10.0 mi East 4.6 mph - N/A   Clear
9:52 PM 46.9 °F - 36.0 °F 66% 30.38 in 10.0 mi ESE 3.5 mph - N/A   Clear
10:52 PM 45.0 °F 42.6 °F 36.0 °F 71% 30.39 in 10.0 mi NE 4.6 mph - N/A   Clear
11:52 PM 44.1 °F 41.5 °F 36.0 °F 73% 30.37 in 10.0 mi NE 4.6 mph - N/A   Clear